20:28
Airports
History
Links
Donate
Help keep this website running!
PayPal
Bitcoin
This page is community maintained. The information is intended for PC simulator navigation or reference.
Always use approved charts for navigation.
BGJN
Ilulissat/Jakobshavn
Ilulissat/Jakobshavn (BGJN)
Ilulissat, Kitaa, Greenland
(C)
Lat/Lng:69° 14' 39.98" N / 51° 3' 44" W
69.244438 / -51.062222
Elevation:95'ft / 29mMSL
ID / ICAO:BGJN
Runways:1
Longest:08-26
Asphalt 837m / 2,746ft
Controlled:Yes
METAR19:50 GMT 2018-01-21
Altimeter: 29.62
Visibility: statute miles
Wind: 19 knots (from 100°)
Temp: -4°c / 25°f
Humidity: 41.9%

METAR: BGJN 211950Z AUTO 10019KT 9999NDV NCD M04/M15 Q1003

(Powered by phpweather)
Nearby VORs <50NM
Nearby NDBs
Runway 08 / 26
Dimensions:836.9 x 29.9m 2746' x 98'ft
Surface:Asphalt
Edge Lights:Medium intensity
Runway 08 [A]Runway 26 [B]
Heading:035°TH 215°TH
Lat:
Lng:
69° 14' 28.77"N
51° 4' 6.13"W
69° 14' 51.18"N
51° 3' 21.86"W
ALS:MALSMALS
User Notes and Comments
69° 14' 39.98" N / 51° 3' 44" W
Distance To
Airport ID:
Nearby Airports
(C) Aasiaat 55.9 NM
BGAA SW 229°
(C) Qaarsut Ummannaq 109.9 NM
BGUQ NNW 339°
(C) Kangerlussuaq 154.5 NM
BGSF ( WX ) S 176°
(C) Sisimiut 172.7 NM
BGSS SSW 203°
(C) Maniitsoq 268.2 NM
BGMA S 190°
(C) Upernavik 269.9 NM
BGUK NNW 335°
4 QIKIQTARJUAQ 349.3 NM
CYVM WSW 250°
VFR Chart
Flight Planning at SkyVector.com